DW0809 Weather Reports


Display with metric or nautical units.
time (UTC)temp
F
wind
direction
speed
MPH
gust
MPH
rain 1hr
in
rain 24hr
in
rain mn
in
humidity
%
barometer
mb
20260508132516 55 0.0 0.0 0.00 0.00 0.00 63 1011.2
20260508131516 55 0.0 0.0 0.00 0.00 0.00 60 1011.1
20260508130537 55 0.0 0.0 0.00 0.00 0.00 58 1010.9
20260508125516 54 0.0 0.0 0.00 0.00 0.00 61 1010.8
20260508124516 53 0.0 0.0 0.00 0.00 0.00 64 1010.7
20260508123517 52 0.0 0.0 0.00 0.00 0.00 68 1010.7
20260508122616 52 0.0 0.0 0.00 0.00 0.00 66 1010.7
20260508121536 52 0.0 0.0 0.00 0.00 0.00 65 1010.8
20260508120516 52 0.0 0.0 0.00 0.00 0.00 64 1010.7
20260508115516 52 0.0 0.0 0.00 0.00 0.00 60 1010.9
20260508114516 51 0.0 0.0 0.00 0.00 0.00 60 1010.7
20260508113516 51 0.0 0.0 0.00 0.00 0.00 58 1010.5
20260508112517 51 0.0 0.0 0.00 0.00 0.00 58 1010.4
20260508111516 52 0.0 0.0 0.00 0.00 0.00 58 1010.6
20260508110537 52 0.0 0.0 0.00 0.00 0.00 58 1010.8
20260508105516 52 0.0 0.0 0.00 0.00 0.00 56 1010.7
20260508104516 52 0.0 0.0 0.00 0.00 0.00 57 1010.6
20260508103516 52 0.0 0.0 0.00 0.00 0.00 56 1010.9
20260508102516 52 0.0 0.0 0.00 0.00 0.00 57 1011.1
20260508101516 52 0.0 0.0 0.00 0.00 0.00 57 1010.9
20260508100516 52 0.0 0.0 0.00 0.00 0.00 58 1011.2
20260508095516 53 0.0 0.0 0.00 0.00 0.00 58 1011.2
20260508094516 53 0.0 0.0 0.00 0.00 0.00 59 1011.3
20260508093536 54 0.0 0.0 0.00 0.00 0.00 58 1011.4
20260508092516 54 0.0 0.0 0.00 0.00 0.00 55 1011.3
20260508091516 55 0.0 0.0 0.00 0.00 0.00 56 1011.4
20260508090516 55 0.0 0.0 0.00 0.00 0.00 52 1011.3
20260508085516 56 0.0 0.0 0.00 0.00 0.00 53 1011.4
20260508084516 56 0.0 0.0 0.00 0.00 0.00 49 1011.4
20260508083536 56 0.0 0.0 0.00 0.00 0.00 50 1011.3
20260508082516 56 0.0 0.0 0.00 0.00 0.00 47 1011.3
20260508081516 57 0.0 0.0 0.00 0.00 0.00 47 1011.5
20260508080536 57 0.0 0.0 0.00 0.00 0.00 46 1011.8
20260508075516 57 0.0 0.0 0.00 0.00 0.00 47 1011.9
20260508074516 57 0.0 0.0 0.00 0.00 0.00 44 1011.8
20260508073516 58 0.0 0.0 0.00 0.00 0.00 45 1011.8
20260508072516 57 0.0 0.0 0.00 0.00 0.00 44 1011.7
20260508071515 57 0.0 0.0 0.00 0.00 0.00 45 1011.4
20260508070516 57 0.0 0.0 0.00 0.00 0.00 46 1011.5
20260508065516 58 0.0 0.0 0.00 0.00 0.00 46 1011.6
20260508064515 58 0.0 0.0 0.00 0.00 0.00 43 1011.7
20260508063515 58 0.0 0.0 0.00 0.00 0.00 41 1011.8
20260508062515 58 0.0 0.0 0.00 0.00 0.00 41 1011.8
20260508061515 58 0.0 0.0 0.00 0.00 0.00 41 1011.9
20260508060536 58 0.0 0.0 0.00 0.00 0.00 41 1011.9
20260508055517 59 0.0 0.0 0.00 0.00 0.00 41 1011.7
20260508054536 59 0.0 0.0 0.00 0.00 0.00 40 1011.5
20260508053516 59 0.0 0.0 0.00 0.00 0.00 41 1011.5
20260508052516 58 0.0 0.0 0.00 0.00 0.00 41 1011.5
20260508051515 58 0.0 0.0 0.00 0.00 0.00 42 1011.5
20260508050515 58 0.0 0.0 0.00 0.00 0.00 42 1011.5
20260508045516 58 0.0 0.0 0.00 0.00 0.00 43 1011.7
20260508044516 58 0.0 0.0 0.00 0.00 0.00 42 1011.8
20260508043516 58 0.0 0.0 0.00 0.00 0.00 42 1011.7
20260508042536 59 0.0 0.0 0.00 0.00 0.00 41 1011.7
20260508041516 59 0.0 0.0 0.00 0.00 0.00 40 1011.8
20260508040536 60 0.0 0.0 0.00 0.00 0.00 40 1011.7
20260508035516 60 0.0 0.0 0.00 0.00 0.00 40 1011.5
20260508034516 60 0.0 0.0 0.00 0.00 0.00 40 1011.7
20260508033516 60 0.0 0.0 0.00 0.00 0.00 40 1011.7
20260508032516 61 0.0 0.0 0.00 0.00 0.00 39 1011.7
20260508031516 61 0.0 0.0 0.00 0.00 0.00 38 1011.7
20260508030516 61 0.0 0.0 0.00 0.00 0.00 37 1011.6
20260508025516 62 0.0 0.0 0.00 0.00 0.00 37 1011.5
20260508024516 62 0.0 0.0 0.00 0.00 0.00 36 1011.4
20260508023536 63 0.0 0.0 0.00 0.00 0.00 35 1011.3
20260508022516 64 0.0 0.0 0.00 0.00 0.00 34 1011.2
20260508021516 64 0.0 0.0 0.00 0.00 0.00 32 1011.1
20260508020516 65 0.0 0.0 0.00 0.00 0.00 32 1010.8
20260508015558 66 0.0 0.0 0.00 0.00 0.00 31 1010.8
20260508014516 66 0.0 0.0 0.00 0.00 0.00 31 1010.8
20260508013516 67 0.0 0.0 0.00 0.00 0.00 30 1010.7
20260508012516 68 0.0 0.0 0.00 0.00 0.00 29 1010.6
20260508011516 69 0.0 0.0 0.00 0.00 0.00 28 1010.5
20260508010536 69 0.0 0.0 0.00 0.00 0.00 28 1010.3
20260508005516 70 0.0 0.0 0.00 0.00 0.00 27 1010.1
20260508004515 70 0.0 0.0 0.00 0.00 0.00 26 1010.0
20260508003515 71 0.0 0.0 0.00 0.00 0.00 26 1009.9
20260508002516 71 0.0 0.0 0.00 0.00 0.00 26 1010.0
20260508001516 71 0.0 0.0 0.00 0.00 0.00 24 1009.8
20260508000516 72 0.0 0.0 0.00 0.00 0.00 25 1009.8
20260507235516 73 0.0 0.0 0.00 0.00 0.00 25 1009.9
20260507234516 73 0.0 0.0 0.00 0.00 0.00 23 1009.9
20260507233516 74 0.0 0.0 0.00 0.00 0.00 24 1010.0
20260507232516 74 0.0 0.0 0.00 0.00 0.00 26 1010.1
20260507231556 74 0.0 0.0 0.00 0.00 0.00 25 1010.0
20260507230516 74 0.0 0.0 0.00 0.00 0.00 26 1010.1
20260507225516 74 0.0 0.0 0.00 0.00 0.00 25 1010.0
20260507224516 74 0.0 0.0 0.00 0.00 0.00 26 1010.0
20260507223535 74 0.0 0.0 0.00 0.00 0.00 26 1010.2
20260507222516 74 0.0 0.0 0.00 0.00 0.00 25 1010.2
20260507221535 73 0.0 0.0 0.00 0.00 0.00 27 1010.1
20260507220535 73 0.0 0.0 0.00 0.00 0.00 25 1010.2
20260507215515 74 0.0 0.0 0.00 0.00 0.00 24 1010.1
20260507214516 74 0.0 0.0 0.00 0.00 0.00 24 1010.1
20260507213515 74 0.0 0.0 0.00 0.00 0.00 27 1010.2
20260507212517 74 0.0 0.0 0.00 0.00 0.00 26 1010.2
20260507211517 74 0.0 0.0 0.00 0.00 0.00 27 1010.3
20260507210517 74 0.0 0.0 0.00 0.00 0.00 28 1010.3
20260507205517 74 0.0 0.0 0.00 0.00 0.00 26 1010.3
20260507204518 74 0.0 0.0 0.00 0.00 0.00 25 1010.4
20260507203517 73 0.0 0.0 0.00 0.00 0.00 27 1010.5
20260507202517 73 0.0 0.0 0.00 0.00 0.00 27 1010.6
20260507201517 74 0.0 0.0 0.00 0.00 0.00 27 1010.5
20260507200517 74 0.0 0.0 0.00 0.00 0.00 30 1010.7
20260507195517 73 0.0 0.0 0.00 0.00 0.00 29 1010.7
20260507194517 72 0.0 0.0 0.00 0.00 0.00 31 1010.5
20260507193537 71 0.0 0.0 0.00 0.00 0.00 34 1010.7
20260507192537 70 0.0 0.0 0.00 0.00 0.00 35 1010.8
20260507191517 71 0.0 0.0 0.00 0.00 0.00 32 1010.9
20260507190517 71 0.0 0.0 0.00 0.00 0.00 35 1010.9
20260507185517 71 0.0 0.0 0.00 0.00 0.00 34 1010.9
20260507184517 70 0.0 0.0 0.00 0.00 0.00 35 1011.1
20260507183517 70 0.0 0.0 0.00 0.00 0.00 36 1011.3
20260507182517 70 0.0 0.0 0.00 0.00 0.00 35 1011.4
20260507181537 69 0.0 0.0 0.00 0.00 0.00 39 1011.6
20260507180517 69 0.0 0.0 0.00 0.00 0.00 35 1011.7
20260507175517 69 0.0 0.0 0.00 0.00 0.00 35 1011.7
20260507174517 69 0.0 0.0 0.00 0.00 0.00 34 1011.9
20260507173517 68 0.0 0.0 0.00 0.00 0.00 34 1011.8
20260507172517 68 0.0 0.0 0.00 0.00 0.00 33 1011.9
20260507171517 68 0.0 0.0 0.00 0.00 0.00 32 1012.0
20260507170517 67 0.0 0.0 0.00 0.00 0.00 33 1012.2
20260507165517 67 0.0 0.0 0.00 0.00 0.00 33 1012.3
20260507164537 67 0.0 0.0 0.00 0.00 0.00 34 1012.3
20260507163518 66 0.0 0.0 0.00 0.00 0.00 35 1012.5
20260507162537 65 0.0 0.0 0.00 0.00 0.00 38 1012.7
20260507161539 65 0.0 0.0 0.00 0.00 0.00 44 1013.0
20260507160537 64 0.0 0.0 0.00 0.00 0.00 44 1013.2
20260507155517 62 0.0 0.0 0.00 0.00 0.00 45 1013.3
20260507154516 62 0.0 0.0 0.00 0.00 0.00 48 1013.4
20260507153517 61 0.0 0.0 0.00 0.00 0.00 48 1013.5
20260507152516 61 0.0 0.0 0.00 0.00 0.00 49 1013.4
20260507151537 60 0.0 0.0 0.00 0.00 0.00 51 1013.6
20260507150517 59 0.0 0.0 0.00 0.00 0.00 55 1013.6
20260507145517 58 0.0 0.0 0.00 0.00 0.00 57 1013.7
20260507144517 57 0.0 0.0 0.00 0.00 0.00 58 1013.8
20260507143558 56 0.0 0.0 0.00 0.00 0.00 61 1013.9
20260507142516 56 0.0 0.0 0.00 0.00 0.00 64 1013.9
20260507141517 55 0.0 0.0 0.00 0.00 0.00 65 1014.0
20260507140517 54 0.0 0.0 0.00 0.00 0.00 67 1014.1
20260507135536 53 0.0 0.0 0.00 0.00 0.00 68 1014.2
20260507134537 53 0.0 0.0 0.00 0.00 0.00 71 1014.2
20260507133516 52 0.0 0.0 0.00 0.00 0.00 72 1014.2